TimeCET,TemperatureF,Dew PointF,Humidity,Sea Level PressureIn,VisibilityMPH,Wind Direction,Wind SpeedMPH,Gust SpeedMPH,PrecipitationIn,Events,Conditions,WindDirDegrees,DateUTC
12:55 AM,19.4,17.6,93,29.56,0.0,NNW,32.2,-,N/A,Fog,Light Freezing Fog,340,2012-12-02 23:55:00
1:00 AM,20,18,86,,0,NNW,32.2,,,Fog,Heavy Fog,340,2012-12-03 00:00:00
1:55 AM,19.4,17.6,93,29.59,0.0,NNW,29.9,-,N/A,Fog,Light Freezing Fog,340,2012-12-03 00:55:00
2:55 AM,19.4,17.6,93,29.62,0.0,NNW,28.8,-,N/A,Fog,Light Freezing Fog,340,2012-12-03 01:55:00
3:55 AM,19.4,17.6,93,29.62,0.0,NNW,29.9,-,N/A,Fog,Light Freezing Fog,340,2012-12-03 02:55:00
4:55 AM,19.4,17.6,93,29.62,0.0,NNW,29.9,-,N/A,Fog,Light Freezing Fog,340,2012-12-03 03:55:00
5:55 AM,17.6,14.0,86,29.65,6.2,NNW,29.9,-,N/A,,Mostly Cloudy,340,2012-12-03 04:55:00
6:55 AM,15.8,8.6,73,29.68,-9999.0,North,28.8,-,N/A,,Clear,350,2012-12-03 05:55:00
7:00 AM,16,8,58,,47,North,28.8,,,,Partly Cloudy,350,2012-12-03 06:00:00
7:55 AM,15.8,5.0,62,29.68,-9999.0,NNE,31.1,-,N/A,,Clear,20,2012-12-03 06:55:00
8:55 AM,15.8,3.2,58,29.74,-9999.0,North,27.6,-,N/A,,Clear,10,2012-12-03 07:55:00
9:55 AM,15.8,-0.4,49,29.77,-9999.0,North,23.0,-,N/A,,Clear,10,2012-12-03 08:55:00
10:55 AM,17.6,-0.4,45,29.80,-9999.0,North,20.7,-,N/A,,Clear,10,2012-12-03 09:55:00
11:55 AM,15.8,-5.8,38,29.77,-9999.0,North,18.4,-,N/A,,Clear,10,2012-12-03 10:55:00
12:55 PM,19.4,1.4,46,29.80,-9999.0,North,20.7,-,N/A,,Clear,350,2012-12-03 11:55:00
1:00 PM,19,1,30,,47,North,20.7,,,,,350,2012-12-03 12:00:00
1:55 PM,19.4,-2.2,39,29.80,-9999.0,NNW,29.9,-,N/A,,Clear,340,2012-12-03 12:55:00
2:55 PM,23.0,6.8,50,29.80,-9999.0,NW,28.8,-,N/A,,Clear,320,2012-12-03 13:55:00
3:55 PM,23.0,6.8,50,29.80,-9999.0,NW,27.6,-,N/A,,Clear,320,2012-12-03 14:55:00
4:55 PM,23.0,6.8,50,29.80,-9999.0,NW,32.2,-,N/A,,Clear,320,2012-12-03 15:55:00
5:55 PM,24.8,6.8,46,29.80,-9999.0,NW,31.1,-,N/A,,Clear,320,2012-12-03 16:55:00
6:55 PM,23.0,6.8,50,29.80,-9999.0,NW,32.2,-,N/A,,Clear,320,2012-12-03 17:55:00
7:00 PM,23,7,35,,47,NW,32.2,,,,,320,2012-12-03 18:00:00
7:55 PM,24.8,8.6,50,29.80,-9999.0,NW,28.8,-,N/A,,Clear,320,2012-12-03 18:55:00
8:55 PM,23.0,6.8,50,29.83,-9999.0,NW,29.9,-,N/A,,Clear,320,2012-12-03 19:55:00
9:55 PM,26.6,14.0,59,29.80,-9999.0,West,28.8,-,N/A,,Clear,260,2012-12-03 20:55:00
10:55 PM,30.2,14.0,51,29.80,-9999.0,West,32.2,-,N/A,,Clear,260,2012-12-03 21:55:00
11:55 PM,30.2,14.0,51,29.80,-9999.0,WSW,32.2,-,N/A,,Clear,250,2012-12-03 22:55:00